C/2015 O1 ( PanSTARRS )

Japanese version
Home page
Updated on November 7, 2017

---------------------------------------------------------------------

* Profile

Discovery Date July 19, 2015
Magnitude 19.6 mag
Discoverer Pan-STARRS 1 telescope (Haleakala)

* Pictures

* Orbital Elements

Epoch 2018 Feb. 11.0 TT = JDT 2458160.5
T 2018 Feb. 19.04012 TT                                 MPCW
q   3.7295012            (2000.0)            P               Q
z  -0.0000303      Peri.   89.59813     -0.52098688     -0.50148178
 +/-0.0000009      Node   299.85557     -0.59857411     +0.79153781
e   1.0001131      Incl.  127.21102     +0.60850777     +0.34926196
From 408 observations 2015 June 15-2017 May 1, mean residual 0".5.

* Finding Charts

* Magnitudes Graph

        m1 = 7.0 + 5 log d + 7.5 log r

---------------------------------------------------------------------

The orbital elements are published on M.P.E.C. 2017-J52.
The charts are made with StellaNavigator Ver.8 (AstroArts).
The magnitudes graphs are made with Comet for Windows.

---------------------------------------------------------------------

Copyright(C) Seiichi Yoshida (comet@aerith.net). All rights reserved.